Location: Rokycany
(49.7330°N, 13.6000°E)
Time: 22:21:27
(UTC+02:00)

ISS - Pass Details

Date: 01 April 2019
Orbit: 408 x 410 km, 51.6° (Epoch: 22 April)

Event Time Altitude Azimuth Distance (km) Brightness Sun altitude
Rises 20:09:40 0° 279° (W) 2,338 2.6 -6.1°
Reaches altitude 10° 20:11:47 10° 283° (WNW) 1,476 0.9 -6.4°
Maximum altitude 20:15:03 61° 5° (N) 468 -3.5 -6.9°
Drops below altitude 10° 20:18:20 10° 87° (E) 1,473 -1.6 -7.4°
Enters shadow 20:18:32 - 87° (E) 1,553 -1.5 -7.4°
